Location: Unspecified
(0.0000°N, 0.0000°E)
Time: 17:47:26
(UTC+00:00)

STARLINK 1038 - Pass Details

Date: 16 January 2020
Orbit: 548 x 551 km, 53.0° (Epoch: 17 January)

Event Time Altitude Azimuth Distance (km) Brightness Sun altitude
Rises 20:00:58 0° 289° (WNW) 2,705 7.8 -25.8°
Reaches altitude 10° 20:04:35 10° 256° (WSW) 1,816 7.2 -26.7°
Maximum altitude 20:06:04 12° 235° (SW) 1,710 7.0 -27.0°
Drops below altitude 10° 20:07:34 10° 213° (SSW) 1,819 7.0 -27.4°
Sets 20:11:13 0° 180° (S) 2,716 7.5 -28.2°
